[ hide orbit diagram ]
For accurate long-term ephemerides, please instead use our Horizons system.This orbit viewer was implemented using two-body methods, and hence should not be used for determining accurate long-term trajectories (over several years or decades) or planetary encounter circumstances.
Orbital Elements at Epoch 2459000.5 (2020-May-31.0) TDB
Reference: JPL 29 (heliocentric ecliptic J2000)
Element | Value | Uncertainty (1-sigma) | Units |
e | .04372771363772893 | 6.8642e-08 | |
a | 2.613062254028854 | 1.1491e-08 | au |
q | 2.498799016067122 | 1.7759e-07 | au |
i | 22.6790347997585 | 6.1635e-06 | deg |
node | 31.66477646262177 | 8.86e-06 | deg |
peri | 333.0006502887338 | 5.3175e-05 | deg |
M | 89.38953682096306 | 5.468e-05 | deg |
tp | 2458617.404325979305 (2019-May-13.90432598) | 0.00023419 | TDB |
period | 1542.847715204935 4.22 | 1.0177e-05 2.786e-08 | d yr |
n | .2333347591289536 | 1.5391e-09 | deg/d |
Q | 2.727325491990586 | 1.1993e-08 | au |
|
| | Orbit Determination Parameters
Additional Information
|
[ show covariance matrix ]
Physical Parameter Table
Parameter |
Symbol |
Value |
Units |
Sigma |
Reference |
Notes |
absolute magnitude |
H |
13.2 |
|
n/a |
MPO502278 |
|
diameter |
diameter |
6.283 |
km |
0.182 |
urn:nasa:pds:neowise_diameters_albedos::2.0[mainbelt] (http://adsabs.harvard.edu/abs/2011ApJ...741...68M) |
|
geometric albedo |
albedo |
0.339 |
|
0.078 |
urn:nasa:pds:neowise_diameters_albedos::2.0[mainbelt] (http://adsabs.harvard.edu/abs/2011ApJ...741...68M) |
|
|
14348 Cumming | Discovered 1985 Oct. 20 by C.-I. Lagerkvist at Kvistaberg. |
Robert Cumming (b. 1967) is an astronomer at Onsala Space Observatory. For many years, he was the editor of the magazine Popular Astronomy. |
NOTE: some special characters may not display properly (any characters within {} are an attempt to place the proper accent above a character) |
Reference: MPC batch dated 2016-02-22 | Last Updated: 2016-02-25 |
|
[ hide close-approach data ]
Close-Approach Data ...sorted by Date/Time (TDB)
|
Date/Time (TDB) |
Time Uncertainty (days_HH:MM) |
Body |
Nominal Distance (au) |
Minimum Distance (au) |
Maximum Distance (au) |
V-relative (km/s) |
V-infinity (km/s) |
JD (TDB) |
Time Uncertainty (minutes) |
Semi-major axis (km) |
Semi-minor axis (km) |
range-LOV angle (deg) |
N-sigma |
BP |
Orbit Ref. |
Reference |
Modified |
2068-Jun-06 16:02 |
< 00:01 |
Thisb |
0.0340691799205501 |
0.034059058262351 |
0.0340793019922256 |
8.16365999242573 |
8.16365996791094 |
2476539.168284905 |
0.672306721257483 |
538.416447417932 |
36.4614099667624 |
-20.4426993250506 |
49611.5071797663 |
T |
29 |
CATAB v2.0f-lin.ifort 2020-Dec-18 02:56:25 |
2020-Dec-18 02:56 |
2119-Feb-09 03:49 |
00:01 |
Thisb |
0.0490344802788612 |
0.0490147539583994 |
0.0490542071801133 |
8.3463542794854 |
8.34635426282535 |
2495047.658852352 |
1.1526920003512 |
1018.97409545266 |
37.2933974364336 |
15.1590641260467 |
51893.4412390511 |
T |
29 |
CATAB v2.0f-lin.ifort 2020-Dec-18 02:56:25 |
2020-Dec-18 02:56 |
2144-Jun-17 08:34 |
00:03 |
Amphi |
0.0309002515527789 |
0.0308860414169824 |
0.0309144751712541 |
5.64298814727411 |
5.6429881143054 |
2504307.856900593 |
2.94197965711084 |
1241.19886791836 |
36.6926817459447 |
-55.2139060274915 |
103459.933409899 |
T |
29 |
CATAB v2.0f-lin.ifort 2020-Dec-18 02:56:25 |
2020-Dec-18 02:56 |
|
|